[[{"header":{"parameterUnit":"m.s-1","parameterCategory":1,"la1":30.2991,"la2":30.254,"lo1":-89.0895,"lo2":-89.0444,"dy":0.0017,"dx":0.0017,"nx":28,"ny":28,"refTime":"2024-08-27T09:00:00:Z","depth":0,"parameterNumber":2,"parameterNumberName":"U-component_of_WINDS"},"data":[0,0,0,0,0,0,0,0,0,0,0,0,0,0,0,0,0,0,0,0,0,0,0,0,0,0,0,0,0,0,0,0,0,0,0,0,0,0,0,0,0,0,0,0,0,0,0,0,0,0,0,0,0,0,0,0,0,0,0.4908,0.4907,0,0.4869,0.4869,0.4868,0.4856,0.4857,0.4857,0.4857,0.4814,0.4813,0.4811,0,0,0,0,0,0,0,0,0,0,0,0,0,0.4969,0.4968,0.4908,0.4907,0.4907,0.4869,0.4869,0.4868,0.4856,0.4857,0.4857,0.4857,0.4814,0.4813,0.4811,0,0,0,0,0,0,0,0,0,0,0,0,0,0.4937,0.4967,0.4908,0.4897,0.4895,0.4869,0.4869,0.4868,0.4856,0.4857,0.4857,0.4857,0.4815,0.4813,0.4811,0.4793,0,0,0.4805,0.4804,0,0,0,0,0,0,0,0,0.4939,0.4935,0.4899,0.4897,0.4896,0.4868,0.4874,0.4843,0.4856,0.4871,0.4857,0.4857,0.4831,0.4828,0.482,0.4791,0.4789,0.4805,0.4804,0.4803,0.4802,0,0,0,0,0,0,0,0.4941,0.4937,0.4892,0.4898,0.4896,0.4893,0.4888,0.4868,0.485,0.487,0.4869,0.4865,0.4831,0.4822,0.4819,0.4788,0.4805,0.4803,0.4802,0.4801,0.4743,0.4742,0,0,0,0,0,0,0.4946,0.4939,0.4894,0.4891,0.4919,0.4891,0.4887,0.4876,0.485,0.4846,0.4864,0.4864,0.4825,0.4821,0.4817,0.4795,0.4803,0.4801,0.48,0.4743,0.4742,0.4742,0,0,0,0,0,0,0.4947,0.4942,0.4895,0.4915,0.4908,0.489,0.4879,0.4876,0.4867,0.4846,0.4842,0.4859,0.4825,0.482,0.4799,0.4793,0.48,0.4798,0.4743,0.4743,0.4742,0.4748,0,0,0,0,0,0,0.4949,0.4943,0.4936,0.4915,0.4908,0.4878,0.4878,0.4875,0.4864,0.4863,0.484,0.4837,0.4825,0.4802,0.4797,0.479,0.4797,0.4744,0.4743,0.4742,0.4749,0.4748,0.4748,0,0,0,0,0,0.4951,0.4938,0.4936,0.493,0.4899,0.4878,0.4874,0.4862,0.4864,0.4856,0.4843,0.4837,0.4795,0.48,0.4795,0.4787,0.4744,0.4743,0.4742,0.4749,0.4748,0.4748,0,0,0,0,0,0,0.4957,0.4935,0.4932,0.4912,0.4897,0.4876,0.4867,0.4862,0.4845,0.4845,0.483,0.4825,0.4805,0.4794,0.4801,0.4768,0.4769,0.4767,0.4776,0.4775,0.4775,0.4777,0.4795,0,0,0,0,0,0.4957,0.4943,0.4924,0.4908,0.4901,0.4885,0.4875,0.4868,0.4852,0.4845,0.483,0.4813,0.4796,0.4785,0.4768,0.4748,0.4742,0.4739,0.4739,0.4739,0.4737,0.4725,0.4724,0.4739,0.4739,0.4739,0,0,0.4954,0.4941,0.4932,0.4909,0.4896,0.4881,0.488,0.4864,0.4852,0.4842,0.4822,0.481,0.4791,0.477,0.476,0.476,0.4731,0.4738,0.4738,0.4736,0.4724,0.4723,0.4721,0.4739,0.4739,0.4739,0,0,0.4943,0.4931,0.4917,0.4905,0.4887,0.4877,0.4874,0.4854,0.4847,0.4826,0.4819,0.4805,0.4775,0.4762,0.4751,0.4737,0.4731,0.4732,0.4729,0.4718,0.4716,0.4715,0.471,0.4708,0.473,0.473,0.473,0,0.4942,0.492,0.491,0.4895,0.4884,0.4876,0.4861,0.485,0.4827,0.482,0.4821,0.4785,0.4771,0.4747,0.4744,0.4736,0.4731,0.4734,0.4718,0.4716,0.4715,0.4709,0.4707,0.473,0.473,0.473,0.473,0,0.492,0.4905,0.4895,0.4875,0.4864,0.4848,0.4836,0.4825,0.4819,0.4809,0.4789,0.4773,0.4753,0.4747,0.474,0.4722,0.4723,0.4721,0.4721,0.4714,0.4708,0.4706,0.4731,0.473,0.473,0.473,0,0,0.4909,0.4885,0.4881,0.4872,0.4853,0.484,0.4825,0.4807,0.4799,0.4784,0.477,0.4747,0.4745,0.4733,0.4725,0.4716,0.4705,0.4715,0.4714,0.4713,0.4684,0.4685,0.4683,0.4702,0.4701,0.4701,0.4686,0,0.4894,0.4868,0.4859,0.4837,0.4823,0.4816,0.4802,0.4789,0.4779,0.4765,0.4755,0.4738,0.4738,0.4731,0.4721,0.4708,0.4699,0.4709,0.4688,0.4687,0.4692,0.468,0.4681,0.4668,0.4684,0.4683,0.4683,0,0.4873,0.4859,0.4836,0.4819,0.4813,0.4801,0.4785,0.4772,0.4756,0.475,0.4738,0.4731,0.4714,0.4717,0.4694,0.4701,0.4692,0.4685,0.4684,0.4681,0.4684,0.4676,0.4663,0.4661,0.468,0.468,0.468,0,0.4867,0.4843,0.4826,0.4818,0.4799,0.4791,0.4782,0.4767,0.4757,0.4742,0.4735,0.4718,0.4709,0.4696,0.4684,0.4687,0.4662,0.4664,0.4656,0.4656,0.4649,0.465,0.4634,0.4645,0.4645,0.4645,0.4645,0,0.4851,0.4837,0.4823,0.4812,0.4797,0.4787,0.4771,0.4762,0.4749,0.4736,0.4729,0.4717,0.4703,0.4689,0.468,0.4662,0.4658,0.4652,0.4649,0.4652,0.4653,0.4645,0.4645,0.4645,0.4645,0.4645,0.4645,0,0.4841,0.4831,0.4812,0.4796,0.4792,0.478,0.4766,0.4755,0.4747,0.473,0.4726,0.4712,0.4695,0.4683,0.4661,0.4655,0.4636,0.4633,0.4641,0.464,0.4632,0.4633,0.461,0.4607,0.4621,0.4621,0.4621,0,0.483,0.482,0.4803,0.4795,0.4786,0.4773,0.4763,0.4753,0.4743,0.4726,0.4717,0.4701,0.4687,0.466,0.4647,0.4631,0.4628,0.4621,0.4625,0.4628,0.4627,0.4627,0.4626,0.462,0.462,0.462,0.462,0,0.4813,0.481,0.4797,0.4782,0.4772,0.4759,0.4747,0.474,0.4728,0.4718,0.4702,0.4691,0.467,0.4653,0.4635,0.4625,0.462,0.4619,0.4616,0.4618,0.4623,0.462,0.4639,0.4619,0.4619,0.4619,0.4619,0.4619,0.4802,0.4793,0.478,0.4766,0.4756,0.4745,0.4735,0.4726,0.4712,0.4695,0.469,0.4673,0.4659,0.4635,0.4625,0.4612,0.4612,0.4607,0.4606,0.4605,0.4605,0.4626,0.4608,0.4608,0.4608,0.4608,0.4608,0,0.4784,0.4776,0.4764,0.4748,0.4737,0.4735,0.4722,0.4712,0.4698,0.4686,0.4673,0.4655,0.4639,0.4626,0.4609,0.4601,0.4598,0.4597,0.4597,0.4594,0.4606,0.461,0.4599,0.4599,0.4599,0.4599,0.4599,0.4599,0.4774,0.4758,0.4753,0.4732,0.4723,0.4708,0.4701,0.469,0.4681,0.4661,0.4649,0.4641,0.4628,0.4611,0.4596,0.4593,0.4587,0.4586,0.4582,0.4593,0.4594,0.4595,0.4598,0.4585,0.4585,0.4571,0.4571,0.4571]},{"header":{"parameterUnit":"m.s-1","parameterCategory":1,"la1":30.2991,"la2":30.254,"lo1":-89.0895,"lo2":-89.0444,"dy":0.0017,"dx":0.0017,"nx":28,"ny":28,"refTime":"2024-08-27T09:00:00:Z","depth":0,"parameterNumber":3,"parameterNumberName":"V-component_of_WINDS"},"data":[0,0,0,0,0,0,0,0,0,0,0,0,0,0,0,0,0,0,0,0,0,0,0,0,0,0,0,0,0,0,0,0,0,0,0,0,0,0,0,0,0,0,0,0,0,0,0,0,0,0,0,0,0,0,0,0,0,0,-3.5921,-3.5922,0,-3.6008,-3.6009,-3.6009,-3.5983,-3.5982,-3.598,-3.5978,-3.6061,-3.6065,-3.6069,0,0,0,0,0,0,0,0,0,0,0,0,0,-3.5729,-3.5733,-3.5921,-3.5922,-3.5923,-3.6007,-3.6009,-3.601,-3.5984,-3.5982,-3.5979,-3.5977,-3.606,-3.6065,-3.6069,0,0,0,0,0,0,0,0,0,0,0,0,0,-3.5813,-3.5734,-3.5921,-3.5921,-3.5921,-3.6007,-3.6009,-3.601,-3.5984,-3.5982,-3.5979,-3.5976,-3.6059,-3.6064,-3.607,-3.616,0,0,-3.6088,-3.609,0,0,0,0,0,0,0,0,-3.5809,-3.582,-3.592,-3.5921,-3.5922,-3.5982,-3.5971,-3.606,-3.5985,-3.596,-3.5978,-3.5975,-3.6037,-3.6044,-3.6066,-3.6164,-3.6167,-3.6088,-3.6092,-3.6094,-3.6096,0,0,0,0,0,0,0,-3.5803,-3.5817,-3.5955,-3.5921,-3.5922,-3.5915,-3.5924,-3.5988,-3.6012,-3.5962,-3.5961,-3.5971,-3.6037,-3.6061,-3.6068,-3.6168,-3.6088,-3.6093,-3.6097,-3.6099,-3.6344,-3.6346,0,0,0,0,0,0,-3.5797,-3.5812,-3.5952,-3.5958,-3.5858,-3.592,-3.593,-3.5965,-3.6012,-3.6016,-3.5974,-3.597,-3.6052,-3.6061,-3.6071,-3.6179,-3.6094,-3.61,-3.6103,-3.6341,-3.6344,-3.6347,0,0,0,0,0,0,-3.5793,-3.581,-3.5949,-3.5884,-3.5902,-3.5926,-3.5966,-3.5968,-3.5992,-3.602,-3.6024,-3.5994,-3.605,-3.6063,-3.6138,-3.6182,-3.6103,-3.6108,-3.6337,-3.6342,-3.6346,-3.6396,0,0,0,0,0,0,-3.5787,-3.5808,-3.5844,-3.5886,-3.5905,-3.6017,-3.5969,-3.5972,-3.6003,-3.5999,-3.604,-3.6044,-3.6049,-3.613,-3.6144,-3.6188,-3.6112,-3.6333,-3.6339,-3.6344,-3.6391,-3.6402,-3.6411,0,0,0,0,0,-3.5781,-3.5853,-3.5846,-3.5863,-3.595,-3.6019,-3.603,-3.6036,-3.6007,-3.6042,-3.606,-3.6043,-3.6175,-3.6138,-3.6154,-3.62,-3.6331,-3.6337,-3.6344,-3.6386,-3.64,-3.6411,0,0,0,0,0,0,-3.5814,-3.5859,-3.5851,-3.594,-3.5976,-3.6015,-3.6059,-3.605,-3.6094,-3.6088,-3.6091,-3.6101,-3.6178,-3.6196,-3.6155,-3.6289,-3.6248,-3.6258,-3.6275,-3.6288,-3.6298,-3.6291,-3.6117,0,0,0,0,0,-3.5832,-3.5886,-3.5921,-3.5996,-3.6015,-3.6034,-3.6064,-3.6065,-3.6102,-3.6117,-3.6141,-3.6176,-3.6225,-3.6257,-3.6304,-3.6393,-3.6401,-3.6433,-3.6443,-3.6451,-3.646,-3.6508,-3.6523,-3.637,-3.637,-3.6369,0,0,-3.5869,-3.59,-3.5934,-3.6004,-3.6032,-3.6086,-3.6047,-3.6106,-3.6146,-3.6125,-3.6199,-3.6217,-3.6257,-3.634,-3.6377,-3.6357,-3.6504,-3.646,-3.6466,-3.6471,-3.6517,-3.6531,-3.6544,-3.6374,-3.6373,-3.6373,0,0,-3.5965,-3.5994,-3.606,-3.609,-3.6134,-3.6146,-3.6162,-3.6202,-3.6214,-3.6288,-3.6274,-3.6321,-3.6406,-3.6434,-3.646,-3.6567,-3.6553,-3.6582,-3.6636,-3.6683,-3.6695,-3.6706,-3.6744,-3.6757,-3.6591,-3.6591,-3.6591,0,-3.6005,-3.6088,-3.6094,-3.6155,-3.6186,-3.6172,-3.6238,-3.6266,-3.6322,-3.6343,-3.632,-3.6427,-3.6452,-3.6541,-3.6568,-3.6589,-3.6606,-3.6577,-3.6693,-3.6704,-3.6714,-3.675,-3.6764,-3.6594,-3.6594,-3.6593,-3.6593,0,-3.6135,-3.6193,-3.624,-3.6297,-3.6333,-3.6396,-3.6411,-3.6446,-3.6444,-3.6458,-3.6534,-3.6564,-3.6617,-3.6638,-3.6636,-3.6727,-3.6713,-3.6692,-3.6651,-3.6732,-3.6766,-3.678,-3.6599,-3.6598,-3.6597,-3.6596,0,0,-3.6254,-3.6315,-3.6332,-3.6358,-3.6406,-3.6449,-3.6511,-3.6565,-3.6595,-3.6634,-3.6685,-3.6758,-3.6738,-3.6767,-3.6768,-3.681,-3.6893,-3.6783,-3.6784,-3.6802,-3.6995,-3.701,-3.7027,-3.6884,-3.6886,-3.6889,-3.6991,0,-3.6354,-3.6465,-3.6472,-3.6572,-3.6625,-3.6612,-3.6666,-3.67,-3.6715,-3.6761,-3.6776,-3.6828,-3.6798,-3.6816,-3.6856,-3.6874,-3.6931,-3.6867,-3.693,-3.6932,-3.6921,-3.7044,-3.7061,-3.7157,-3.7005,-3.7007,-3.7008,0,-3.6485,-3.6531,-3.6636,-3.6677,-3.6699,-3.6747,-3.6797,-3.6841,-3.6879,-3.6887,-3.6921,-3.6916,-3.6978,-3.6935,-3.7019,-3.6975,-3.7002,-3.7014,-3.7018,-3.7024,-3.6975,-3.7053,-3.7187,-3.7202,-3.703,-3.7028,-3.7026,0,-3.6561,-3.6648,-3.6723,-3.6745,-3.6795,-3.6829,-3.6851,-3.6886,-3.6918,-3.6961,-3.6981,-3.703,-3.7057,-3.7094,-3.7102,-3.707,-3.7187,-3.7144,-3.7194,-3.7194,-3.7219,-3.7217,-3.7359,-3.7236,-3.7236,-3.7236,-3.7235,0,-3.6672,-3.6737,-3.6758,-3.6804,-3.6876,-3.6883,-3.6953,-3.6973,-3.7005,-3.7053,-3.7044,-3.7089,-3.7097,-3.7144,-3.715,-3.7219,-3.7231,-3.7238,-3.7239,-3.7239,-3.7238,-3.7256,-3.725,-3.7239,-3.7239,-3.7238,-3.7237,0,-3.6769,-3.6786,-3.6866,-3.6907,-3.6919,-3.697,-3.7004,-3.7047,-3.7061,-3.7122,-3.7137,-3.7158,-3.7213,-3.7225,-3.7288,-3.7293,-3.7375,-3.7369,-3.7362,-3.7362,-3.7411,-3.7406,-3.7569,-3.7591,-3.7454,-3.7455,-3.7456,0,-3.6838,-3.6888,-3.6935,-3.6968,-3.6992,-3.7044,-3.7077,-3.7086,-3.712,-3.7168,-3.7205,-3.7258,-3.7302,-3.7389,-3.7409,-3.7458,-3.7453,-3.7507,-3.746,-3.7459,-3.7454,-3.7451,-3.7455,-3.7515,-3.7517,-3.7518,-3.7519,0,-3.696,-3.6966,-3.7015,-3.7067,-3.7107,-3.7148,-3.7186,-3.7213,-3.7227,-3.7265,-3.7322,-3.7356,-3.7422,-3.7475,-3.7524,-3.7544,-3.7534,-3.7534,-3.7548,-3.7548,-3.7543,-3.7546,-3.7387,-3.753,-3.7529,-3.7528,-3.7527,-3.7527,-3.7045,-3.7089,-3.7129,-3.7184,-3.7214,-3.7251,-3.7294,-3.7314,-3.7362,-3.7418,-3.7419,-3.7481,-3.7517,-3.7582,-3.7606,-3.7653,-3.7636,-3.7656,-3.7661,-3.7666,-3.7671,-3.7535,-3.7661,-3.7661,-3.7661,-3.766,-3.766,0,-3.7166,-3.7192,-3.7242,-3.7297,-3.734,-3.7329,-3.7371,-3.7407,-3.7462,-3.7497,-3.7541,-3.7605,-3.7657,-3.7682,-3.7732,-3.7765,-3.7762,-3.7778,-3.7775,-3.778,-3.7683,-3.7666,-3.778,-3.778,-3.778,-3.778,-3.778,-3.778,-3.7234,-3.7308,-3.7319,-3.7407,-3.7432,-3.7493,-3.7519,-3.7552,-3.7581,-3.7654,-3.7697,-3.7714,-3.7745,-3.7798,-3.7844,-3.785,-3.7869,-3.7888,-3.7891,-3.7799,-3.7787,-3.7776,-3.7759,-3.7892,-3.7892,-3.7985,-3.7985,-3.7986]}]]